Date String (YYYY-MM-DD hh:mm:ss) UTC,Instrument flags,absolute air pressure of the measurement (hPa),sample flow rate (lpm),inlet stack bypass flow (lpm),air temperature of the measurement (°C),ambient temperature measured by the external sensor (°C),aerosol sample conditioner tube jacket temperature (°C),OPC LED temperature (°C),internal box temperature (°C),relative humidity of the measurement (%),span deviation,mass concentration of particles derived from Lorenz-Mie calculation of OPC scattering (μg/m³),mass concentration of particles derived from Lorenz-Mie calculation of OPC scattering (μg/m³),mass concentration of particles derived from Lorenz-Mie calculation of OPC scattering (μg/m³)
DateTimeUTC,F1_M11,P_M11,Q1_M11,Q2_M11,T1_M11,T2_M11,T3_M11,T4_M11,T5_M11,U1_M11,ZSPAN_M11,X2_M11,X0_M11,X1_M11
2023-07-28 15:00:00,SystemResetWarning,0835.0,5.01,000.00,031.0,025.8,000.0,038.8,031.0,31.5,0000.0,0004.14,0009.63,0003.55
2023-07-28 15:01:00,SystemResetWarning,0835.0,5.00,000.00,030.9,026.2,000.0,038.9,031.0,31.8,0000.0,0004.11,0009.24,0003.57
2023-07-28 15:02:00,SystemResetWarning,0835.0,5.00,000.00,030.8,026.6,000.0,038.9,031.1,32.0,0000.0,0004.19,0009.36,0003.61
2023-07-28 15:03:00,SystemResetWarning,0835.0,5.00,000.00,030.8,026.9,000.0,038.9,031.2,32.9,0000.0,0004.25,0009.04,0003.63
2023-07-28 15:04:00,SystemResetWarning,0835.0,5.00,000.00,030.8,027.3,000.0,038.9,031.3,32.2,0000.0,0004.27,0009.24,0003.64
2023-07-28 15:05:00,SystemResetWarning,0835.0,5.00,000.00,030.8,027.5,000.0,038.9,031.3,31.5,0000.0,0004.29,0010.27,0003.65
2023-07-28 15:06:00,SystemResetWarning,0835.0,4.99,000.00,030.7,027.7,000.0,038.9,031.3,30.7,0000.0,0004.32,0010.40,0003.65
2023-07-28 15:07:00,SystemResetWarning,0835.0,4.99,000.00,030.7,027.9,000.0,038.9,031.4,30.7,0000.0,0004.36,0009.92,0003.66
2023-07-28 15:08:00,SystemResetWarning,0835.0,5.00,000.00,030.7,028.1,000.0,038.9,031.4,31.3,0000.0,0004.38,0009.98,0003.66
2023-07-28 15:09:00,SystemResetWarning,0835.0,5.00,000.00,030.7,028.2,000.0,038.9,031.5,30.7,0000.0,0004.36,0009.89,0003.65
2023-07-28 15:10:00,SystemResetWarning,0835.0,5.00,000.00,030.7,028.3,000.0,038.9,031.5,29.9,0000.0,0004.36,0009.85,0003.64
2023-07-28 15:11:00,SystemResetWarning,0834.9,5.01,000.00,030.7,028.4,000.0,039.0,031.6,29.9,0000.0,0004.37,0009.79,0003.64
2023-07-28 15:12:00,SystemResetWarning,0834.9,4.97,000.00,030.7,027.8,000.0,038.9,031.6,30.6,0000.0,0004.43,0009.89,0003.63
2023-07-28 15:13:00,SystemResetWarning,0835.0,5.00,000.00,030.7,026.2,000.0,038.7,031.4,31.6,0000.0,0004.41,0009.98,0003.62
2023-07-28 15:14:00,SystemResetWarning,0835.3,5.01,000.00,030.6,025.5,000.0,038.6,031.2,31.8,0000.0,0004.38,0010.00,0003.61
2023-07-28 15:15:00,SystemResetWarning,0835.3,5.01,000.00,030.5,025.7,000.0,038.6,031.0,32.5,0000.0,0004.35,0009.74,0003.61
2023-07-28 15:16:00,SystemResetWarning,0834.9,5.00,000.00,030.4,026.1,000.0,038.7,031.0,32.5,0000.0,0004.39,0008.95,0003.62
2023-07-28 15:17:00,SystemResetWarning,0835.3,5.01,000.00,030.3,026.5,000.0,038.7,031.1,32.7,0000.0,0004.43,0009.79,0003.64
2023-07-28 15:18:00,SystemResetWarning,0835.4,4.99,000.00,030.3,026.8,000.0,038.7,031.1,32.5,0000.0,0004.43,0009.82,0003.65
2023-07-28 15:19:00,SystemResetWarning,0835.4,4.99,000.00,030.3,027.2,000.0,038.7,031.2,31.9,0000.0,0004.48,0010.20,0003.67
2023-07-28 15:20:00,SystemResetWarning,0835.4,5.00,000.00,030.3,027.4,000.0,038.7,031.2,32.1,0000.0,0004.56,0010.83,0003.69
2023-07-28 15:21:00,SystemResetWarning,0835.3,5.00,000.00,030.3,027.7,000.0,038.7,031.3,31.5,0000.0,0004.58,0011.15,0003.72
2023-07-28 15:22:00,SystemResetWarning,0835.3,5.01,000.00,030.3,027.9,000.0,038.6,031.3,31.0,0000.0,0004.58,0011.25,0003.72
2023-07-28 15:23:00,SystemResetWarning,0835.2,5.00,000.00,030.3,028.0,000.0,038.7,031.4,31.5,0000.0,0004.52,0011.96,0003.71
2023-07-28 15:24:00,SystemResetWarning,0835.4,5.00,000.00,030.3,028.2,000.0,038.6,031.4,31.5,0000.0,0004.51,0012.29,0003.70
2023-07-28 15:25:00,SystemResetWarning,0835.2,5.00,000.00,030.3,028.3,000.0,038.6,031.4,32.5,0000.0,0004.51,0012.29,0003.71
2023-07-28 15:26:00,SystemResetWarning,0835.3,4.98,000.00,030.3,027.5,000.0,038.5,031.4,32.8,0000.0,0004.48,0011.93,0003.70
2023-07-28 15:27:00,SystemResetWarning,0835.2,5.01,000.00,030.2,025.9,000.0,038.4,031.2,32.9,0000.0,0004.45,0012.94,0003.71
2023-07-28 15:28:00,SystemResetWarning,0835.2,5.01,000.00,030.2,025.5,000.0,038.3,031.0,33.3,0000.0,0004.42,0013.00,0003.70
2023-07-28 15:29:00,SystemResetWarning,0835.3,5.00,000.00,030.0,025.7,000.0,038.3,030.9,33.9,0000.0,0004.44,0013.45,0003.69
2023-07-28 15:30:00,SystemResetWarning,0835.2,4.99,000.00,030.0,026.0,000.0,038.3,030.9,34.3,0000.0,0004.39,0013.21,0003.67
2023-07-28 15:31:00,SystemResetWarning,0835.3,5.01,000.00,030.0,026.4,000.0,038.3,030.9,32.8,0000.0,0004.36,0012.72,0003.68
2023-07-28 15:32:00,SystemResetWarning,0835.1,5.00,000.00,030.0,026.8,000.0,038.3,031.0,32.1,0000.0,0004.34,0012.34,0003.67
2023-07-28 15:33:00,SystemResetWarning,0834.8,5.00,000.00,030.0,027.1,000.0,038.3,031.1,31.3,0000.0,0004.34,0012.29,0003.66
2023-07-28 15:34:00,SystemResetWarning,0834.8,5.00,000.00,030.0,027.4,000.0,038.4,031.1,31.9,0000.0,0004.34,0011.53,0003.67
2023-07-28 15:35:00,SystemResetWarning,0834.9,5.00,000.00,030.0,027.7,000.0,038.4,031.2,32.2,0000.0,0004.31,0010.96,0003.67
2023-07-28 15:36:00,SystemResetWarning,0834.8,5.00,000.00,030.0,027.9,000.0,038.4,031.2,32.4,0000.0,0004.34,0010.90,0003.67
2023-07-28 15:37:00,SystemResetWarning,0834.9,4.99,000.00,030.0,028.0,000.0,038.4,031.3,31.2,0000.0,0004.37,0010.92,0003.67
2023-07-28 15:38:00,SystemResetWarning,0834.9,4.99,000.00,030.1,027.7,000.0,038.3,031.3,30.7,0000.0,0004.39,0009.96,0003.68
2023-07-28 15:39:00,SystemResetWarning,0835.1,5.00,000.00,030.0,026.2,000.0,038.2,031.1,31.3,0000.0,0004.36,0009.45,0003.67
2023-07-28 15:40:00,SystemResetWarning,0835.3,5.01,000.00,030.0,025.4,000.0,038.1,030.9,31.7,0000.0,0004.35,0008.84,0003.69
2023-07-28 15:41:00,SystemResetWarning,0834.8,5.01,000.00,029.9,025.5,000.0,038.1,030.7,31.1,0000.0,0004.35,0008.65,0003.69
2023-07-28 15:44:00,SystemResetWarning,0834.8,5.00,000.00,029.7,026.7,000.0,038.1,030.8,32.7,0000.0,0004.32,0008.67,0003.70
2023-07-28 15:45:00,SystemResetWarning,0834.8,5.00,000.00,029.7,027.0,000.0,038.1,030.9,33.8,0000.0,0004.33,0008.62,0003.70
2023-07-28 15:46:00,SystemResetWarning,0834.9,4.99,000.00,029.7,027.3,000.0,038.1,031.0,32.8,0000.0,0004.36,0008.66,0003.72
2023-07-28 15:47:00,SystemResetWarning,0834.8,5.00,000.00,029.7,027.6,000.0,038.2,031.0,32.7,0000.0,0004.35,0009.26,0003.73
2023-07-28 15:48:00,SystemResetWarning,0834.7,5.00,000.00,029.7,027.8,000.0,038.2,031.1,32.8,0000.0,0004.35,0009.49,0003.74
2023-07-28 15:49:00,SystemResetWarning,0834.9,5.00,000.00,029.8,027.9,000.0,038.2,031.1,32.4,0000.0,0004.31,0009.39,0003.75
2023-07-28 15:50:00,SystemResetWarning,0834.8,5.00,000.00,029.8,027.9,000.0,038.1,031.2,32.9,0000.0,0004.35,0008.81,0003.76
2023-07-28 15:51:00,SystemResetWarning,0835.0,4.99,000.00,029.8,026.6,000.0,038.0,031.0,33.5,0000.0,0004.36,0008.87,0003.75
2023-07-28 15:52:00,SystemResetWarning,0834.7,5.01,000.00,029.7,025.5,000.0,037.9,030.8,32.8,0000.0,0004.36,0008.99,0003.75
2023-07-28 15:53:00,SystemResetWarning,0834.7,4.99,000.00,029.6,025.4,000.0,037.9,030.7,34.6,0000.0,0004.32,0008.97,0003.75
2023-07-28 15:54:00,SystemResetWarning,0834.9,5.03,000.00,029.6,025.7,000.0,037.9,030.6,33.7,0000.0,0004.33,0009.00,0003.73
2023-07-28 15:55:00,SystemResetWarning,0834.8,4.99,000.00,029.6,026.1,000.0,037.9,030.7,33.3,0000.0,0004.32,0008.90,0003.71
2023-07-28 15:56:00,SystemResetWarning,0834.7,4.99,000.00,029.6,026.5,000.0,037.9,030.8,33.1,0000.0,0004.32,0008.89,0003.70
2023-07-28 15:57:00,SystemResetWarning,0834.8,5.00,000.00,029.7,026.9,000.0,038.0,030.8,32.1,0000.0,0004.32,0008.93,0003.69
2023-07-28 15:58:00,SystemResetWarning,0835.0,5.01,000.00,029.7,027.2,000.0,038.0,030.9,32.1,0000.0,0004.33,0008.54,0003.67
2023-07-28 15:59:00,SystemResetWarning,0834.7,5.00,000.00,029.7,027.5,000.0,038.0,031.0,31.7,0000.0,0004.39,0008.39,0003.65
